TimeEDT,TemperatureF,Dew PointF,Humidity,Sea Level PressureIn,VisibilityMPH,Wind Direction,Wind SpeedMPH,Gust SpeedMPH,PrecipitationIn,Events,Conditions,WindDirDegrees,DateUTC
12:53 AM,42.1,39.0,89,29.86,2.5,Calm,Calm,-,0.02,Rain,Light Rain,0,2013-03-16 04:53:00
1:53 AM,41.0,37.9,89,29.82,2.5,SE,3.5,-,0.02,Rain,Light Rain,130,2013-03-16 05:53:00
2:10 AM,41.0,37.4,87,29.81,2.5,Calm,Calm,-,0.00,Rain,Light Rain,0,2013-03-16 06:10:00
2:53 AM,41.0,39.0,93,29.80,2.5,Calm,Calm,-,0.00,,Overcast,0,2013-03-16 06:53:00
3:19 AM,41.0,37.4,87,29.76,4.0,East,4.6,-,N/A,,Overcast,80,2013-03-16 07:19:00
3:53 AM,41.0,37.9,89,29.76,3.0,East,3.5,-,N/A,,Overcast,100,2013-03-16 07:53:00
4:02 AM,41.0,37.4,87,29.74,3.0,East,3.5,-,N/A,,Overcast,100,2013-03-16 08:02:00
4:53 AM,41.0,37.9,89,29.73,3.0,East,4.6,-,N/A,,Overcast,80,2013-03-16 08:53:00
5:09 AM,41.0,37.4,87,29.72,3.0,Calm,Calm,-,N/A,,Overcast,0,2013-03-16 09:09:00
5:30 AM,41.0,37.4,87,29.72,3.0,Calm,Calm,-,0.00,,Overcast,0,2013-03-16 09:30:00
5:53 AM,41.0,37.9,89,29.73,4.0,SE,4.6,-,0.00,Rain,Light Rain,130,2013-03-16 09:53:00
6:53 AM,41.0,37.9,89,29.73,4.0,North,3.5,-,0.00,,Overcast,10,2013-03-16 10:53:00
7:53 AM,41.0,37.9,89,29.71,3.0,ENE,4.6,-,0.00,,Overcast,70,2013-03-16 11:53:00
7:57 AM,39.2,37.4,93,29.70,2.5,East,3.5,-,N/A,,Overcast,80,2013-03-16 11:57:00
8:17 AM,39.2,37.4,93,29.68,1.8,East,5.8,-,N/A,,Overcast,90,2013-03-16 12:17:00
8:53 AM,39.9,37.0,89,29.69,1.8,East,4.6,-,N/A,,Overcast,90,2013-03-16 12:53:00
9:44 AM,39.2,37.4,93,29.67,1.8,Calm,Calm,-,N/A,,Overcast,0,2013-03-16 13:44:00
9:53 AM,39.9,37.0,89,29.69,1.8,NE,4.6,-,N/A,,Overcast,40,2013-03-16 13:53:00
10:14 AM,39.2,37.4,93,29.67,2.0,NE,6.9,-,N/A,,Overcast,40,2013-03-16 14:14:00
10:53 AM,39.0,36.0,89,29.68,2.0,East,5.8,-,N/A,,Overcast,80,2013-03-16 14:53:00
11:53 AM,39.9,37.0,89,29.65,2.5,Variable,4.6,-,N/A,,Overcast,0,2013-03-16 15:53:00
12:09 PM,41.0,37.4,87,29.63,3.0,East,4.6,-,N/A,,Overcast,90,2013-03-16 16:09:00
12:19 PM,41.0,37.4,87,29.64,3.0,Calm,Calm,-,N/A,,Overcast,0,2013-03-16 16:19:00
12:53 PM,42.1,37.0,82,29.67,4.0,NNE,4.6,-,N/A,,Haze,20,2013-03-16 16:53:00
1:53 PM,42.1,37.9,85,29.70,4.0,NNW,6.9,-,N/A,,Overcast,340,2013-03-16 17:53:00
2:34 PM,42.8,37.4,81,29.71,4.0,Variable,3.5,-,N/A,,Overcast,0,2013-03-16 18:34:00
2:53 PM,42.1,37.9,85,29.72,4.0,Variable,3.5,-,N/A,,Overcast,0,2013-03-16 18:53:00
3:53 PM,43.0,37.9,82,29.76,3.0,NNW,11.5,-,N/A,,Haze,330,2013-03-16 19:53:00
4:53 PM,41.0,37.0,86,29.81,3.0,NW,9.2,18.4,N/A,,Overcast,310,2013-03-16 20:53:00
5:20 PM,39.2,35.6,87,29.81,2.0,NNW,12.7,-,N/A,,Overcast,330,2013-03-16 21:20:00
5:53 PM,39.0,35.1,86,29.84,4.0,NW,8.1,-,N/A,,Overcast,320,2013-03-16 21:53:00
6:53 PM,36.0,33.1,89,29.89,6.0,NW,8.1,-,N/A,,Overcast,320,2013-03-16 22:53:00
7:53 PM,36.0,30.9,82,29.94,8.0,NNW,8.1,-,N/A,,Overcast,340,2013-03-16 23:53:00
8:23 PM,35.6,30.2,81,29.93,10.0,NNW,5.8,-,N/A,,Overcast,330,2013-03-17 00:23:00
8:53 PM,35.1,30.0,82,29.97,10.0,NNW,10.4,-,N/A,,Overcast,330,2013-03-17 00:53:00
9:15 PM,35.6,28.4,75,29.96,10.0,NNW,8.1,-,N/A,,Overcast,330,2013-03-17 01:15:00
9:24 PM,35.6,28.4,75,29.97,10.0,NNW,6.9,-,N/A,,Overcast,340,2013-03-17 01:24:00
9:35 PM,35.6,28.4,75,29.97,10.0,NNW,5.8,-,N/A,,Overcast,340,2013-03-17 01:35:00
9:53 PM,35.1,28.0,76,30.00,10.0,North,4.6,-,N/A,,Overcast,10,2013-03-17 01:53:00
10:53 PM,34.0,27.0,75,30.00,10.0,NNW,5.8,-,N/A,,Overcast,330,2013-03-17 02:53:00
11:53 PM,33.1,27.0,78,30.03,10.0,NW,5.8,-,N/A,,Overcast,310,2013-03-17 03:53:00